[[{"header":{"parameterUnit":"m.s-1","parameterCategory":1,"la1":30.2992,"la2":30.254,"lo1":-89.0895,"lo2":-89.0443,"dy":0.0025,"dx":0.0025,"nx":19,"ny":19,"refTime":"2026-03-22T03:00:00:Z","depth":0,"parameterNumber":2,"parameterNumberName":"U-component_of_WINDS"},"data":[0,0,0,2.9769,2.9773,2.9946,2.9946,3.0174,3.0176,0,0,0,0,0,0,0,0,0,0,0,2.9722,2.9723,2.9769,2.9773,2.9945,2.9946,3.0173,3.0176,0,0,0,0,0,0,0,0,0,0,0,2.9721,2.9723,2.9725,2.9774,2.9945,2.9946,3.0173,3.004,0,0,0,0,0,0,0,0,0,0,2.9872,2.9831,2.9722,2.9725,2.9775,2.9945,2.9946,3.0034,3.0049,3.0098,0,3.0142,0,3.0162,3.0191,3.0192,0,0,0,2.9771,2.9819,2.9862,2.9725,2.9777,2.9945,2.9867,3.0042,3.0059,3.0118,3.0145,3.0154,3.0166,3.0193,3.0194,3.0481,3.0482,0,0,2.9762,2.9755,2.985,2.9873,2.9846,2.9862,2.9873,3.0052,3.0082,3.0146,3.0159,3.017,3.0194,3.0196,3.048,3.0481,0,0,0,2.9736,2.9748,2.9787,2.9864,2.9894,2.9867,2.9879,3.0074,3.0087,3.0161,3.0173,3.0196,3.0198,3.0478,3.048,3.0542,0,0,0,2.973,2.9733,2.9783,2.9781,2.9891,2.9986,2.9898,3.0075,3.0095,3.0171,3.0196,3.0201,3.0477,3.0479,3.0537,3.0573,0,0,0,2.9709,2.9731,2.9757,2.978,2.9853,2.9984,3.0007,3.0079,3.0103,3.0192,3.0201,3.0475,3.0479,3.0533,3.0565,3.0644,0,0,0,2.9686,2.9812,2.9758,2.9903,2.9852,3.0021,3.0006,3.0133,3.0217,3.0197,3.0477,3.048,3.0531,3.0561,3.0639,3.0707,3.0735,0,0,2.9841,2.9831,2.9917,2.9873,3.0049,2.9995,3.0181,3.0266,3.0282,3.0414,3.0421,3.0539,3.0565,3.0643,3.09,3.0922,0,0,0,2.9964,3.0025,3.0073,3.0152,3.0218,3.0278,3.0335,3.0366,3.0477,3.0348,3.059,3.0606,3.0652,3.0684,3.0703,3.0742,3.0496,3.0495,3.0495,3.0174,3.0185,3.0328,3.0359,3.0436,3.0491,3.0554,3.0606,3.0598,3.0654,3.0693,3.0847,3.0885,3.09,3.094,3.0732,3.0732,3.0732,3.0732,3.0402,3.0489,3.0472,3.0603,3.0614,3.0725,3.0783,3.0773,3.0878,3.082,3.0861,3.0795,3.0924,3.0959,3.0737,3.0736,3.0736,3.0735,3.0735,3.0539,3.0582,3.0617,3.0729,3.0815,3.0843,3.0943,3.0951,3.096,3.1,3.104,3.1039,3.1037,3.1019,3.102,3.102,3.1021,3.1021,3.1021,3.0667,3.0703,3.0785,3.0864,3.0914,3.0981,3.1037,3.1087,3.1144,3.1141,3.1142,3.1125,3.0935,3.0885,3.103,3.1028,3.1027,3.1026,3.1026,3.0889,3.0839,3.0966,3.1016,3.1108,3.1191,3.1199,3.1299,3.1341,3.139,3.1365,3.1224,3.1214,3.1199,3.1157,3.1364,3.1364,3.1364,3.1364,3.1002,3.0998,3.1128,3.1206,3.1284,3.1303,3.1446,3.149,3.1528,3.1555,3.1527,3.1473,3.1458,3.1457,3.1436,3.1398,3.1661,3.1661,3.1661,3.1138,3.1141,3.126,3.1295,3.1367,3.1428,3.1561,3.1652,3.1686,3.1673,3.1575,3.1563,3.1477,3.1449,3.1433,3.1401,3.133,0,0]},{"header":{"parameterUnit":"m.s-1","parameterCategory":1,"la1":30.2992,"la2":30.254,"lo1":-89.0895,"lo2":-89.0443,"dy":0.0025,"dx":0.0025,"nx":19,"ny":19,"refTime":"2026-03-22T03:00:00:Z","depth":0,"parameterNumber":3,"parameterNumberName":"V-component_of_WINDS"},"data":[0,0,0,2.4915,2.4918,2.5039,2.504,2.5197,2.5199,0,0,0,0,0,0,0,0,0,0,0,2.4881,2.4882,2.4915,2.4918,2.5039,2.504,2.5197,2.5199,0,0,0,0,0,0,0,0,0,0,0,2.488,2.4882,2.4883,2.4918,2.5039,2.504,2.5197,2.5104,0,0,0,0,0,0,0,0,0,0,2.4985,2.4956,2.4881,2.4883,2.4919,2.5039,2.504,2.51,2.511,2.5143,0,2.5174,0,2.5189,2.5209,2.521,0,0,0,2.4916,2.4947,2.4979,2.4883,2.492,2.5039,2.4984,2.5105,2.5117,2.5157,2.5176,2.5182,2.5191,2.521,2.5211,2.5409,2.541,0,0,2.491,2.4904,2.4971,2.4986,2.4968,2.498,2.4988,2.5112,2.5133,2.5177,2.5186,2.5194,2.5212,2.5213,2.5409,2.541,0,0,0,2.4891,2.4899,2.4927,2.498,2.5002,2.4984,2.4993,2.5127,2.5137,2.5187,2.5196,2.5212,2.5214,2.5407,2.5409,2.5453,0,0,0,2.4887,2.4888,2.4924,2.4922,2.4999,2.5066,2.5005,2.5128,2.5143,2.5195,2.5213,2.5216,2.5406,2.5408,2.5449,2.5475,0,0,0,2.4872,2.4886,2.4905,2.4921,2.4973,2.5064,2.5081,2.5131,2.5148,2.521,2.5216,2.5406,2.5408,2.5446,2.547,2.5525,0,0,0,2.4854,2.4942,2.4905,2.5007,2.4972,2.5091,2.508,2.5169,2.5227,2.5213,2.5407,2.5409,2.5445,2.5467,2.5522,2.5572,2.5592,0,0,2.4962,2.4955,2.5015,2.4986,2.5109,2.5072,2.5202,2.5261,2.5272,2.5363,2.5368,2.5451,2.5469,2.5525,2.5705,2.5721,0,0,0,2.5047,2.509,2.5124,2.518,2.5227,2.5269,2.5309,2.5331,2.5408,2.5318,2.5486,2.5497,2.553,2.5554,2.5567,2.5596,2.5419,2.5419,2.5419,2.5192,2.5201,2.5301,2.5324,2.5378,2.5418,2.5462,2.5498,2.5491,2.5531,2.5558,2.5666,2.5694,2.5705,2.5734,2.5584,2.5585,2.5585,2.5585,2.535,2.5413,2.5402,2.5495,2.5503,2.5581,2.5622,2.5615,2.5688,2.5647,2.5676,2.5631,2.5722,2.5748,2.5588,2.5588,2.5587,2.5587,2.5587,2.5447,2.5478,2.5503,2.5583,2.5644,2.5665,2.5735,2.5741,2.5746,2.5775,2.5804,2.5803,2.5804,2.5788,2.5789,2.5789,2.5789,2.579,2.579,2.5537,2.5563,2.5623,2.5679,2.5715,2.5763,2.5802,2.5838,2.5878,2.5876,2.5876,2.5866,2.5729,2.5694,2.5796,2.5795,2.5794,2.5793,2.5793,2.5696,2.5661,2.5752,2.5788,2.5855,2.5914,2.5919,2.599,2.602,2.6055,2.6037,2.5935,2.5928,2.5918,2.5889,2.6035,2.6035,2.6035,2.6035,2.5778,2.5774,2.5869,2.5926,2.5982,2.5996,2.6098,2.6129,2.6155,2.6174,2.6153,2.6116,2.6105,2.6105,2.609,2.6064,2.625,2.6251,2.6251,2.5876,2.5878,2.5965,2.599,2.6042,2.6086,2.6183,2.6248,2.627,2.626,2.6189,2.618,2.6119,2.6099,2.6088,2.6065,2.6017,0,0]}]]